• In Hungary
  • List of Countries
  • For 7 days
  • Water Temperature
  • Satellite Maps
  • Weather Map
  • News
  • Weather Widgets
  • user-avatar
    Login

    Hourly Weather Jakuby

    Today, 18 October, Wednesday

    Time Temperature Precipitation Wind Pressure Humidity
    00:00 +12°C° 0 mm 3 mps 750 mmHg 89%
    01:00 +12°C° 0 mm 3 mps 749 mmHg 91%
    02:00 +12°C° 0 mm 3 mps 749 mmHg 92%
    03:00 +12°C° 0 mm 3 mps 749 mmHg 93%
    04:00 +12°C° 0 mm 3 mps 748 mmHg 93%
    05:00 +12°C° 0 mm 3 mps 748 mmHg 93%
    06:00 +12°C° 0 mm 3 mps 748 mmHg 94%
    07:00 +12°C° 0 mm 3 mps 748 mmHg 94%
    08:00 +13°C° 0 mm 3 mps 748 mmHg 86%
    09:00 +15°C° 0 mm 4 mps 748 mmHg 77%
    10:00 +17°C° 0 mm 4 mps 748 mmHg 69%
    11:00 +18°C° 0 mm 4 mps 748 mmHg 65%
    12:00 +18°C° 0 mm 4 mps 748 mmHg 61%
    13:00 +19°C° 0 mm 3 mps 748 mmHg 57%
    14:00 +17°C° 0 mm 3 mps 748 mmHg 61%
    15:00 +16°C° 0 mm 2 mps 748 mmHg 65%
    16:00 +15°C° 0 mm 2 mps 748 mmHg 70%
    17:00 +14°C° 0 mm 2 mps 748 mmHg 74%
    18:00 +13°C° 0 mm 2 mps 748 mmHg 78%
    19:00 +12°C° 0 mm 2 mps 748 mmHg 83%
    20:00 +12°C° 0 mm 2 mps 749 mmHg 85%
    21:00 +11°C° 0 mm 1 mps 749 mmHg 87%
    22:00 +11°C° 0 mm 1 mps 749 mmHg 90%
    23:00 +10°C° 0 mm 1 mps 749 mmHg 91%

    Tomorrow, 19 October, Thursday

    Time Temperature Precipitation Wind Pressure Humidity
    00:00 +10°C° 0 mm 1 mps 749 mmHg 92%
    01:00 +10°C° 0 mm 1 mps 749 mmHg 92%
    02:00 +10°C° 0 mm 1 mps 749 mmHg 93%
    03:00 +9°C° 0 mm 1 mps 749 mmHg 94%
    04:00 +8°C° 0 mm 2 mps 749 mmHg 94%
    05:00 +8°C° 0 mm 2 mps 749 mmHg 95%
    06:00 +8°C° 0 mm 2 mps 749 mmHg 95%
    07:00 +8°C° 0 mm 2 mps 749 mmHg 95%
    08:00 +10°C° 0 mm 2 mps 750 mmHg 89%
    09:00 +12°C° 0 mm 2 mps 750 mmHg 84%
    10:00 +12°C° 0 mm 3 mps 750 mmHg 78%
    11:00 +13°C° 0 mm 3 mps 750 mmHg 76%
    12:00 +13°C° 0 mm 3 mps 750 mmHg 74%
    13:00 +14°C° 0 mm 3 mps 750 mmHg 72%
    14:00 +13°C° 0 mm 3 mps 750 mmHg 75%
    15:00 +13°C° 0 mm 3 mps 750 mmHg 78%
    16:00 +12°C° 0 mm 3 mps 750 mmHg 82%
    17:00 +11°C° 0 mm 3 mps 750 mmHg 85%
    18:00 +10°C° 0 mm 3 mps 750 mmHg 87%
    19:00 +9°C° 0 mm 3 mps 751 mmHg 90%
    20:00 +9°C° 0 mm 3 mps 751 mmHg 89%
    21:00 +9°C° 0 mm 3 mps 751 mmHg 88%
    22:00 +8°C° 0 mm 3 mps 752 mmHg 87%
    23:00 +8°C° 0 mm 3 mps 752 mmHg 86%

    Day after tomorrow, 20 October, Friday

    Time Temperature Precipitation Wind Pressure Humidity
    00:00 +7°C° 0 mm 3 mps 752 mmHg 86%
    01:00 +7°C° 0 mm 3 mps 752 mmHg 85%
    02:00 +7°C° 0 mm 3 mps 752 mmHg 84%
    03:00 +7°C° 0 mm 3 mps 752 mmHg 82%
    04:00 +5°C° 0 mm 3 mps 752 mmHg 81%
    05:00 +5°C° 0 mm 3 mps 753 mmHg 80%
    06:00 +5°C° 0 mm 3 mps 753 mmHg 80%
    07:00 +5°C° 0 mm 3 mps 753 mmHg 79%
    08:00 +6°C° 0 mm 4 mps 754 mmHg 74%
    09:00 +7°C° 0 mm 4 mps 754 mmHg 69%
    10:00 +10°C° 0 mm 4 mps 754 mmHg 63%
    11:00 +10°C° 0 mm 4 mps 754 mmHg 61%
    12:00 +11°C° 0 mm 4 mps 754 mmHg 58%
    13:00 +12°C° 0 mm 4 mps 754 mmHg 55%
    14:00 +11°C° 0 mm 4 mps 754 mmHg 59%
    15:00 +10°C° 0 mm 3 mps 754 mmHg 62%
    16:00 +9°C° 0 mm 3 mps 754 mmHg 66%
    17:00 +8°C° 0 mm 3 mps 754 mmHg 68%
    18:00 +8°C° 0 mm 3 mps 755 mmHg 70%
    19:00 +6°C° 0 mm 4 mps 755 mmHg 73%
    20:00 +7°C° 0 mm 3 mps 755 mmHg 75%
    21:00 +5°C° 0 mm 3 mps 755 mmHg 76%
    22:00 +5°C° 0 mm 3 mps 756 mmHg 78%
    23:00 +5°C° 0 mm 3 mps 756 mmHg 78%

    21 October, Saturday

    Time Temperature Precipitation Wind Pressure Humidity
    00:00 +4°C° 0 mm 3 mps 756 mmHg 79%
    01:00 +4°C° 0 mm 3 mps 756 mmHg 79%
    02:00 +4°C° 0 mm 3 mps 755 mmHg 81%
    03:00 +4°C° 0 mm 3 mps 755 mmHg 82%
    04:00 +3°C° 0 mm 3 mps 755 mmHg 83%
    05:00 +3°C° 0 mm 3 mps 755 mmHg 83%
    06:00 +3°C° 0 mm 3 mps 755 mmHg 82%
    07:00 +3°C° 0 mm 3 mps 755 mmHg 82%
    08:00 +5°C° 0 mm 4 mps 755 mmHg 77%
    09:00 +6°C° 0 mm 4 mps 755 mmHg 71%
    10:00 +8°C° 0 mm 4 mps 755 mmHg 66%
    11:00 +8°C° 0 mm 4 mps 755 mmHg 64%
    12:00 +10°C° 0 mm 4 mps 755 mmHg 62%
    13:00 +11°C° 0 mm 4 mps 754 mmHg 61%
    14:00 +10°C° 0 mm 4 mps 754 mmHg 63%
    15:00 +10°C° 0 mm 4 mps 754 mmHg 65%
    16:00 +8°C° 0 mm 4 mps 753 mmHg 68%
    17:00 +8°C° 0 mm 4 mps 753 mmHg 70%
    18:00 +7°C° 0 mm 4 mps 753 mmHg 72%
    19:00 +6°C° 0 mm 4 mps 753 mmHg 74%
    20:00 +6°C° 0 mm 4 mps 753 mmHg 75%
    21:00 +6°C° 0 mm 4 mps 753 mmHg 76%
    22:00 +5°C° 0 mm 4 mps 753 mmHg 76%
    23:00 +5°C° 0 mm 4 mps 753 mmHg 76%

    22 October, Sunday

    Time Temperature Precipitation Wind Pressure Humidity
    00:00 +5°C° 0 mm 4 mps 752 mmHg 76%
    01:00 +5°C° 0 mm 4 mps 752 mmHg 75%
    02:00 +5°C° 0 mm 4 mps 752 mmHg 75%
    03:00 +5°C° 0 mm 4 mps 751 mmHg 75%
    04:00 +5°C° 0 mm 4 mps 751 mmHg 74%
    05:00 +5°C° 0 mm 4 mps 751 mmHg 76%
    06:00 +5°C° 0 mm 4 mps 750 mmHg 77%
    07:00 +4°C° 0 mm 3 mps 750 mmHg 79%
    08:00 +6°C° 0 mm 4 mps 750 mmHg 75%
    09:00 +7°C° 0 mm 4 mps 750 mmHg 71%
    10:00 +8°C° 0 mm 4 mps 750 mmHg 68%
    11:00 +10°C° 0 mm 4 mps 749 mmHg 66%
    12:00 +11°C° 0 mm 4 mps 749 mmHg 65%
    13:00 +12°C° 0 mm 4 mps 748 mmHg 64%
    14:00 +11°C° 0 mm 3 mps 748 mmHg 68%
    15:00 +11°C° 0 mm 3 mps 748 mmHg 71%
    16:00 +10°C° 0 mm 2 mps 748 mmHg 75%
    17:00 +9°C° 0 mm 2 mps 748 mmHg 77%
    18:00 +9°C° 0 mm 2 mps 747 mmHg 80%
    19:00 +8°C° 0 mm 2 mps 747 mmHg 82%
    20:00 +8°C° 0 mm 2 mps 747 mmHg 82%
    21:00 +8°C° 0 mm 2 mps 747 mmHg 83%
    22:00 +8°C° 0 mm 2 mps 747 mmHg 83%
    23:00 +9°C° 0 mm 2 mps 747 mmHg 85%

    23 October, Monday

    Time Temperature Precipitation Wind Pressure Humidity
    00:00 +9°C° 0 mm 2 mps 747 mmHg 86%
    01:00 +10°C° 0 mm 1 mps 747 mmHg 87%
    02:00 +10°C° 0.2 mm 1 mps 747 mmHg 88%
    03:00 +10°C° 0.2 mm 1 mps 747 mmHg 89%
    04:00 +10°C° 0.2 mm 1 mps 747 mmHg 90%
    05:00 +10°C° 0.3 mm 1 mps 747 mmHg 91%
    06:00 +10°C° 0.3 mm 1 mps 747 mmHg 92%
    07:00 +10°C° 0.3 mm 1 mps 748 mmHg 93%
    08:00 +10°C° 0.1 mm 1 mps 748 mmHg 91%
    09:00 +11°C° 0.1 mm 1 mps 748 mmHg 89%
    10:00 +11°C° 0.1 mm 1 mps 748 mmHg 88%
    11:00 +11°C° 0.1 mm 1 mps 749 mmHg 88%
    12:00 +10°C° 0.1 mm 2 mps 749 mmHg 89%
    13:00 +10°C° 0.1 mm 2 mps 749 mmHg 89%
    14:00 +10°C° 0.1 mm 2 mps 749 mmHg 89%
    15:00 +10°C° 0.1 mm 2 mps 749 mmHg 90%
    16:00 +10°C° 0.1 mm 2 mps 750 mmHg 90%
    17:00 +10°C° 0.1 mm 2 mps 750 mmHg 91%
    18:00 +9°C° 0.1 mm 2 mps 750 mmHg 93%
    19:00 +9°C° 0.1 mm 2 mps 751 mmHg 94%
    20:00 +9°C° 0.1 mm 2 mps 751 mmHg 94%
    21:00 +9°C° 0.1 mm 2 mps 751 mmHg 95%
    22:00 +9°C° 0.1 mm 2 mps 752 mmHg 95%
    23:00 +9°C° 0.2 mm 2 mps 752 mmHg 96%
    Show more